Tracking 21611 objects as of 21-Oct-2020
HD Live streaming from Space Station
objects crossing your sky now

STARLINK-1709

Track STARLINK-1709 now!
10-day predictions
STARLINK-1709 is classified as:


NORAD ID: 46561
Int'l Code: 2020-070AF
Perigee: 350.6 km
Apogee: 352.1 km
Inclination: 53.0 °
Period: 91.4 minutes
Semi major axis: 6722 km
RCS: Unknown
Launch date: October 6, 2020
Source: United States (US)
Launch site: AIR FORCE EASTERN TEST RANGE (AFETR)
aabbcc
Your satellite tracking list
Your tracking list is empty




NASA's NSSDC Master Catalog

Two Line Element Set (TLE):
1 46561U 20070AF  20294.91668981 -.01106410 +00000-0 -80863-2 0  9998
2 46561 052.9887 011.1449 0001104 044.7307 318.4175 15.75155914001782
Source of the keplerian elements: AFSPC